User: anonymous   Login
Location: Niverville
(49.6028°N, 97.0419°W)
Time: 22:29:45
(UTC-05:00)
Language:

BREEZE-M DEB (TANK) - Orbit

View from above orbital plane
View from above orbital plane
View from above satellite
View from above satellite

Ground track
Ground track

The orbit data is extracted from the following two-line orbital elements,

1 33374U 08044B   16211.38011519  .00000481  00000-0  92656-4 0  9990
2 33374  49.4326 150.8830 5448200 250.5512  44.9243  4.86384207138288
Epoch (UTC): 29 July 2016 09:07:21
Eccentricity: 0.5448200
inclination: 49.4326°
perigee height: 319 km
apogee height: 16353 km
right ascension of ascending node: 150.8830°
argument of perigee: 250.5512°
revolutions per day: 4.86384207
mean anomaly at epoch: 44.9243°
orbit number at epoch: 13828

The dashed part of the orbit path shows where the satellite is in the earth's shadow,  

DLR